Temp
63 65 63 62 62 62 62 62 62 62 62 62 62 62 61 61 60 65 64 70 67 68 67 71 70 69 66 63 63 62 53 48 50 55 61 69 67 71 74 71 75 74 72 76 76
64 64 65 63 61 61 61 61 61 61 62 62 62 61 61 60 59 61 70 69 69 70 69 68 67 68 62 60 62 59 50 54 60 62 64 68 61 69 70 70 73 71 75 75 74
60 64 65 63 61 61 61 61 60 61 62 62 62 61 60 59 61 66 69 69 70 71 70 70 70 67 58 59 59 54 54 59 65 69 63 64 65 68 68 63 71 72 70 72 71
60 63 64 64 62 61 60 60 60 61 61 62 62 62 60 60 53 66 70 69 70 70 71 68 66 60 56 55 59 56 62 65 67 66 62 61 63 67 67 71 75 76 71 71 71
58 62 63 64 63 61 60 59 60 61 61 62 62 62 60 55 60 72 69 70 71 71 67 65 62 60 56 57 60 59 62 66 68 68 65 66 62 67 69 72 73 74 74 72 70
58 58 62 62 62 61 60 59 59 60 60 61 62 61 56 51 70 72 71 69 69 67 65 65 63 63 60 58 57 60 62 63 66 66 64 65 63 63 72 69 72 73 73 73 70
58 57 61 61 62 60 60 59 58 59 60 61 61 61 53 57 66 65 68 65 67 68 64 67 67 62 61 57 63 62 58 60 64 63 62 65 61 62 72 69 70 70 68 69 71
58 57 60 60 60 59 59 58 58 59 60 61 61 56 50 68 64 66 64 66 68 68 67 68 68 62 60 63 61 56 53 50 61 62 64 63 55 68 69 66 70 69 68 70 71
57 58 58 59 59 58 58 58 58 59 60 60 54 53 50 67 63 67 69 66 69 69 67 76 66 58 59 52 49 51 44 48 57 66 62 58 56 67 67 67 68 68 67 66 69
57 57 57 59 58 57 56 58 58 58 59 62 61 50 57 59 66 69 66 70 64 65 62 60 55 50 49 50 43 46 46 45 53 60 57 53 56 62 66 65 66 65 65 67 69
56 56 56 58 58 56 56 56 50 49 51 49 51 54 62 65 69 65 68 67 65 59 52 54 47 45 54 56 54 51 49 50 54 61 55 55 53 60 63 61 61 62 63 65 65
56 56 56 58 57 56 59 54 57 56 46 54 55 57 62 65 58 64 69 59 57 50 53 48 46 55 58 57 55 52 50 49 56 60 55 54 53 60 61 63 64 65 64 64 60
55 56 55 57 56 55 56 57 66 61 47 52 55 55 58 61 56 58 65 60 55 51 52 50 53 59 57 54 51 51 49 51 51 52 54 52 53 58 63 62 66 65 63 63 62
54 55 55 56 53 56 54 62 62 60 41 47 48 54 58 59 53 65 66 61 55 51 51 51 56 54 52 51 53 45 56 56 51 47 41 50 41 51 58 60 61 63 60 59 59
54 54 54 56 57 52 59 62 58 56 21 53 51 65 61 56 58 58 68 63 52 53 54 49 51 51 51 52 57 49 58 54 52 48 43 45 42 50 58 57 61 59 58 58 56
54 54 54 54 58 61 64 59 53 35 24 47 53 49 49 55 56 58 61 64 62 54 54 52 57 56 55 60 60 59 53 52 47 45 38 46 45 51 54 57 59 57 58 59 57
53 54 54 57 52 64 62 52 36 28 50 45 46 50 49 48 53 53 52 52 50 43 45 51 52 54 59 53 56 55 49 38 35 34 36 51 46 53 57 62 61 58 57 57 56
53 53 54 55 59 63 55 43 29 40 43 53 50 49 46 50 50 50 49 47 55 51 46 43 41 54 58 56 52 52 48 37 32 32 41 49 41 49 60 61 62 60 58 57 55
51 52 52 54 58 60 47 33 35 42 50 49 49 43 44 49 50 51 48 49 53 55 47 43 44 56 59 63 60 50 45 52 42 42 36 41 47 56 56 56 57 57 56 55 56
47 49 49 57 58 55 43 38 43 50 53 52 43 47 41 47 47 48 47 54 53 58 57 52 43 53 57 59 59 56 57 41 39 32 33 39 40 46 50 53 54 54 55 56 56
46 40 51 56 55 46 36 40 44 51 53 51 47 45 46 45 49 48 49 55 58 56 59 54 48 45 53 49 48 49 49 47 47 39 32 32 40 52 55 54 54 54 55 56 57
44 33 53 55 42 41 36 44 49 48 50 50 49 47 48 49 47 47 48 52 59 58 50 56 48 42 47 55 57 57 51 52 40 36 41 36 44 50 54 55 55 55 56 56 56
38 38 46 52 32 34 40 45 48 48 46 46 45 48 49 46 42 49 49 52 55 57 51 52 42 37 40 46 52 50 51 54 53 42 41 35 39 53 53 53 53 52 52 51 51
39 33 36 45 38 38 38 40 41 49 45 47 45 46 45 43 47 45 46 50 52 52 51 56 45 40 39 41 43 43 49 52 50 39 41 43 41 47 49 49 49 47 47 46 47
41 34 39 33 35 39 42 40 39 39 46 47 42 43 42 37 41 42 47 45 49 50 50 49 43 46 47 47 46 45 46 50 47 49 41 43 47 52 48 47 47 47 47 46 45
34 35 39 39 42 39 38 37 40 41 41 40 40 45 44 40 43 42 46 44 43 45 45 45 37 44 42 49 46 41 45 48 50 51 45 45 44 49 48 49 48 47 46 44 44
41 42 40 40 38 38 36 39 41 45 42 48 45 43 41 45 49 44 46 48 46 44 41 40 36 35 35 44 39 33 38 44 45 48 48 39 45 46 45 46 45 45 46 45 46
MSLP
1014.35 1014.80 1015.09 1015.29 1015.53 1015.72 1015.92 1015.91 1016.18 1016.10 1016.01 1015.93 1015.78 1015.45 1015.04 1014.62 1013.81 1013.12 1012.59 1011.27 1011.13 1011.07 1011.06 1010.87 1010.74 1010.91 1011.10 1011.32 1011.51 1011.89 1012.93 1013.34 1012.25 1011.21 1009.74 1008.83 1008.41 1007.41 1006.93 1006.76 1006.43 1006.57 1006.94 1007.08 1007.54
1013.85 1014.05 1014.57 1014.81 1015.11 1015.42 1015.58 1015.74 1015.91 1016.01 1015.90 1015.84 1015.64 1015.31 1014.98 1014.75 1014.26 1012.85 1011.13 1010.94 1011.01 1011.00 1011.00 1010.96 1010.87 1010.91 1011.33 1011.44 1011.62 1011.99 1012.96 1012.64 1011.32 1010.39 1009.70 1009.05 1008.80 1008.07 1007.68 1007.25 1006.91 1006.87 1007.05 1007.29 1007.83
1013.90 1013.30 1013.83 1014.30 1014.60 1015.02 1015.31 1015.54 1015.70 1015.84 1015.87 1015.83 1015.68 1015.27 1014.87 1014.68 1014.11 1011.67 1010.88 1010.97 1011.01 1011.01 1011.00 1010.97 1010.94 1011.05 1011.34 1011.47 1011.51 1011.89 1012.14 1011.57 1010.68 1010.08 1009.83 1009.46 1008.95 1008.53 1008.07 1007.79 1007.31 1007.13 1007.40 1007.75 1008.20
1013.14 1012.78 1013.12 1013.80 1014.09 1014.48 1014.92 1015.28 1015.53 1015.69 1015.76 1015.87 1015.79 1015.39 1014.79 1014.62 1013.53 1011.18 1010.98 1011.08 1011.15 1011.15 1011.09 1011.00 1011.03 1011.26 1011.55 1011.67 1011.44 1011.67 1011.20 1010.95 1010.35 1009.78 1009.84 1009.59 1009.03 1008.79 1008.26 1007.43 1007.00 1007.06 1007.36 1007.88 1008.17
1012.82 1012.24 1012.58 1012.94 1013.60 1014.02 1014.55 1015.04 1015.28 1015.54 1015.69 1015.75 1015.73 1015.41 1014.78 1014.35 1012.72 1011.10 1011.18 1011.30 1011.32 1011.21 1011.14 1011.12 1011.27 1011.44 1011.56 1011.60 1011.58 1011.48 1011.06 1010.66 1010.07 1009.93 1009.74 1009.41 1009.23 1009.03 1007.76 1007.10 1007.00 1006.93 1006.98 1007.53 1007.83
1012.22 1012.37 1011.78 1012.36 1013.12 1013.55 1014.13 1014.73 1015.13 1015.35 1015.54 1015.65 1015.57 1015.42 1015.07 1013.98 1011.43 1011.24 1011.42 1011.30 1011.45 1011.36 1011.32 1011.30 1011.42 1011.53 1011.70 1011.71 1011.71 1011.36 1011.06 1010.43 1009.83 1009.58 1009.46 1009.32 1008.94 1008.95 1006.81 1006.94 1006.81 1006.82 1006.43 1006.40 1007.06
1011.53 1011.75 1011.10 1011.76 1012.27 1013.23 1013.69 1014.31 1014.94 1015.30 1015.42 1015.56 1015.52 1015.37 1014.96 1012.61 1011.29 1011.43 1011.67 1011.71 1011.52 1011.50 1011.52 1011.48 1011.45 1011.55 1011.81 1011.84 1011.63 1011.48 1011.28 1010.49 1009.65 1009.14 1009.12 1008.99 1008.58 1008.62 1006.85 1006.97 1006.73 1006.68 1006.66 1006.32 1006.09
1010.68 1011.04 1010.52 1011.02 1011.69 1012.75 1013.38 1013.94 1014.71 1015.17 1015.45 1015.51 1015.57 1015.51 1014.30 1011.97 1011.63 1011.60 1011.40 1011.44 1011.39 1011.55 1011.53 1011.52 1011.53 1011.69 1011.93 1012.03 1011.95 1012.02 1011.85 1011.12 1009.39 1009.14 1008.83 1008.99 1008.51 1007.49 1007.25 1006.98 1006.93 1006.61 1006.68 1006.46 1005.84
1010.02 1010.33 1010.29 1010.23 1011.17 1012.26 1013.18 1013.71 1014.46 1015.03 1015.37 1015.57 1015.69 1015.45 1013.68 1011.54 1011.46 1010.57 1011.14 1011.25 1011.17 1011.45 1011.55 1011.63 1011.82 1012.23 1012.31 1012.63 1012.91 1012.58 1012.21 1011.42 1009.99 1008.77 1009.02 1009.28 1008.62 1007.71 1007.26 1007.33 1007.05 1006.72 1006.66 1006.64 1006.28
1008.90 1009.29 1009.67 1009.47 1010.57 1011.85 1012.86 1013.77 1014.47 1015.11 1015.40 1015.52 1015.36 1015.33 1012.62 1010.86 1010.40 1010.13 1010.39 1010.79 1011.21 1011.58 1012.05 1012.16 1012.68 1012.82 1013.05 1012.97 1012.81 1012.36 1012.29 1011.53 1010.61 1009.37 1009.25 1009.59 1009.24 1008.41 1007.68 1007.65 1007.07 1006.87 1006.61 1006.54 1006.22
1007.81 1008.46 1009.27 1008.84 1009.91 1011.39 1012.72 1013.70 1014.69 1014.99 1014.54 1013.31 1013.01 1012.16 1010.72 1010.22 1009.77 1009.96 1010.07 1010.72 1011.20 1011.87 1012.48 1012.73 1013.33 1012.56 1011.31 1011.97 1012.08 1012.24 1012.03 1011.41 1010.49 1009.76 1009.99 1009.46 1009.40 1008.48 1007.84 1007.59 1007.05 1006.59 1006.50 1006.22 1005.88
1006.84 1007.49 1008.51 1008.44 1009.05 1010.60 1011.47 1011.28 1011.00 1011.09 1012.87 1012.85 1012.59 1012.06 1011.04 1010.78 1010.32 1009.83 1009.87 1010.60 1011.34 1011.72 1012.36 1013.21 1012.26 1011.91 1012.02 1012.08 1012.26 1012.24 1012.02 1011.54 1010.50 1010.04 1010.36 1009.32 1008.73 1008.04 1007.68 1006.72 1006.12 1005.92 1005.95 1005.78 1005.72
1005.73 1006.49 1007.38 1007.68 1008.28 1010.35 1010.14 1010.33 1010.42 1010.56 1011.26 1011.42 1011.25 1011.19 1010.97 1011.05 1010.48 1009.68 1009.82 1010.09 1010.86 1011.61 1011.72 1011.78 1011.28 1010.79 1011.60 1011.98 1012.18 1011.97 1011.93 1011.45 1011.07 1010.58 1009.98 1009.67 1008.23 1007.38 1006.52 1005.79 1005.23 1005.14 1005.27 1005.37 1005.51
1004.98 1005.25 1006.09 1006.85 1008.09 1008.72 1009.44 1010.19 1010.21 1010.53 1011.29 1010.15 1010.07 1008.93 1009.64 1010.69 1009.78 1009.14 1009.10 1009.62 1010.44 1010.82 1011.44 1011.30 1010.91 1011.10 1011.17 1011.52 1011.68 1011.33 1010.78 1010.88 1011.24 1011.64 1010.97 1009.90 1008.23 1006.94 1006.08 1005.67 1005.44 1005.05 1005.30 1005.41 1005.80
1004.04 1004.56 1005.38 1006.30 1005.00 1006.76 1008.29 1009.46 1010.26 1010.44 1010.54 1007.41 1007.70 1006.60 1007.21 1008.18 1007.81 1007.86 1008.25 1009.11 1009.51 1009.99 1010.41 1009.69 1009.78 1010.22 1010.20 1009.75 1010.42 1010.18 1010.00 1010.68 1010.91 1011.12 1011.07 1010.63 1009.76 1006.00 1005.65 1005.56 1005.18 1004.93 1005.38 1005.78 1006.57
1002.78 1003.71 1004.93 1005.71 1004.64 1005.53 1007.79 1009.35 1010.10 1010.82 1008.18 1005.80 1005.95 1006.33 1007.10 1007.36 1007.18 1007.45 1007.71 1008.48 1008.77 1009.49 1009.32 1009.21 1008.93 1009.08 1008.67 1008.90 1009.30 1009.46 1010.00 1010.49 1010.89 1011.38 1010.70 1010.39 1009.52 1003.92 1005.16 1004.65 1004.59 1004.95 1005.45 1006.26 1007.02
1002.68 1002.59 1003.59 1004.08 1002.94 1004.63 1006.92 1009.00 1009.71 1008.34 1005.53 1005.27 1005.07 1005.81 1005.99 1006.55 1007.06 1006.98 1007.41 1007.73 1007.93 1009.11 1008.30 1009.07 1008.37 1008.43 1008.18 1008.42 1008.60 1009.23 1010.03 1010.92 1011.41 1011.62 1009.83 1008.61 1008.14 1004.98 1004.60 1004.12 1004.12 1004.73 1005.50 1006.39 1007.25
1001.12 1002.08 1002.45 1003.71 1002.76 1003.70 1006.47 1007.86 1006.88 1004.92 1004.29 1003.35 1003.84 1005.00 1005.33 1005.78 1006.33 1006.36 1006.89 1007.07 1007.19 1007.13 1007.37 1008.05 1007.62 1007.35 1006.83 1006.90 1007.47 1008.04 1008.60 1009.51 1010.22 1010.53 1009.31 1008.37 1006.53 1004.45 1003.72 1003.52 1003.75 1004.26 1005.20 1006.37 1007.03
1000.70 1000.53 1001.63 1002.06 1001.27 1002.19 1004.65 1004.95 1003.38 1002.16 1002.52 1002.73 1003.57 1004.17 1004.57 1004.83 1004.79 1005.46 1005.55 1005.19 1005.21 1005.69 1006.43 1006.62 1006.20 1005.09 1005.01 1005.47 1006.80 1007.32 1007.78 1008.12 1009.14 1009.53 1009.47 1007.84 1005.87 1004.34 1003.99 1003.99 1004.33 1004.78 1005.89 1006.50 1006.80
999.92 999.66 1000.02 1000.77 1000.14 1001.01 1002.21 1002.34 1001.78 1001.08 1000.77 1001.77 1001.88 1002.47 1003.15 1003.79 1004.13 1004.39 1004.83 1003.82 1004.43 1004.66 1005.14 1005.36 1005.52 1004.78 1004.55 1005.36 1005.84 1005.97 1006.67 1008.19 1009.11 1009.54 1009.40 1007.06 1006.19 1004.48 1004.42 1004.53 1004.95 1005.27 1005.69 1006.39 1006.74
1000.60 1000.28 997.90 999.22 999.25 1000.01 999.91 999.58 999.94 1000.41 1000.18 1000.80 1000.99 1001.71 1002.12 1002.57 1002.93 1003.33 1002.96 1002.78 1002.92 1003.68 1004.91 1005.28 1005.54 1005.27 1004.95 1004.41 1004.75 1006.23 1006.30 1006.80 1007.38 1007.73 1007.71 1007.33 1004.86 1003.34 1003.58 1004.09 1004.69 1005.32 1005.76 1006.42 1006.77
999.52 999.13 997.05 998.18 998.29 998.69 1000.07 998.47 999.59 1000.71 1000.44 1000.40 1000.48 1000.77 1001.29 1001.97 1002.26 1002.80 1002.38 1002.04 1002.08 1003.17 1004.22 1004.36 1005.72 1005.26 1004.91 1004.18 1004.16 1004.56 1004.68 1005.61 1006.26 1007.01 1007.13 1006.87 1002.93 1003.50 1003.50 1004.16 1004.82 1005.55 1006.19 1006.60 1007.02
998.81 997.77 997.31 996.98 997.07 998.34 999.59 1000.84 999.82 1000.22 1000.41 1000.72 1001.15 1000.97 1001.22 1001.63 1002.29 1002.03 1002.32 1002.16 1002.39 1002.81 1003.26 1004.55 1005.35 1005.94 1005.08 1004.87 1004.47 1004.42 1004.48 1004.61 1005.14 1006.05 1005.61 1006.50 1003.96 1003.94 1003.91 1004.98 1005.67 1006.18 1006.94 1007.30 1007.51
997.99 997.30 997.31 996.05 997.42 998.09 999.82 1000.02 1000.01 1000.11 1000.54 1000.80 1001.30 1001.22 1001.59 1001.84 1001.76 1001.98 1002.71 1003.05 1003.01 1003.24 1003.33 1003.59 1004.17 1004.39 1003.40 1004.03 1004.42 1004.26 1004.09 1004.18 1004.72 1005.25 1004.44 1004.41 1005.11 1005.18 1005.47 1005.91 1006.58 1007.28 1007.76 1008.12 1008.47
996.74 996.88 996.56 996.56 997.57 998.69 999.34 999.32 1000.04 1000.65 1000.87 1001.10 1001.44 1001.27 1001.72 1002.15 1002.30 1002.43 1002.88 1003.49 1003.85 1004.14 1004.16 1004.30 1004.25 1004.42 1003.71 1004.28 1004.33 1004.00 1003.60 1003.54 1003.82 1002.72 1004.23 1003.98 1004.92 1005.33 1006.26 1006.68 1007.43 1008.15 1008.79 1009.29 1009.83
996.92 996.92 996.49 996.00 997.02 998.47 998.54 998.69 999.46 1000.05 1000.00 1000.62 1000.72 1001.26 1001.95 1002.17 1001.94 1002.48 1002.93 1003.41 1003.72 1004.86 1005.04 1005.16 1004.61 1004.79 1004.04 1004.45 1004.58 1004.14 1003.33 1002.73 1002.64 1003.19 1004.09 1004.37 1005.10 1005.35 1006.78 1007.53 1008.12 1008.89 1009.41 1009.94 1010.35
996.90 996.80 996.02 996.16 996.73 997.68 997.73 998.49 998.55 999.32 999.90 999.81 1000.45 1001.60 1001.90 1000.65 1002.42 1003.33 1003.64 1003.45 1003.60 1004.36 1005.08 1005.74 1005.78 1006.01 1004.15 1004.98 1005.37 1004.60 1001.59 1002.56 1002.96 1003.07 1003.86 1004.96 1005.23 1005.96 1006.96 1007.78 1008.31 1009.07 1009.41 1010.02 1010.63
Wind_Speed
19 20 16 14 13 12 11 10 10 8 7 8 10 11 13 14 16 2 6 6 3 2 1 4 0 1 2 1 1 3 5 1 4 4 6 4 7 2 4 3 4 2 4 4 10
21 21 20 16 14 13 11 10 8 8 8 8 9 11 12 12 4 6 8 3 3 4 1 2 2 4 2 1 1 4 4 10 6 3 4 6 3 7 6 7 6 1 4 5 9
25 23 23 18 15 14 12 10 9 9 8 8 10 11 11 8 5 6 3 3 4 3 1 1 1 1 1 1 2 3 6 6 6 7 3 6 6 3 5 2 7 5 3 5 5
27 24 22 20 17 15 13 11 10 9 7 7 9 12 13 2 5 3 4 3 4 4 2 1 3 3 1 2 2 2 6 4 4 0 1 3 3 6 6 10 6 8 2 6 8
19 23 23 23 19 16 13 11 10 9 7 5 7 11 5 1 10 4 2 3 5 2 1 1 1 3 3 1 4 4 4 5 7 7 6 3 5 7 14 12 9 10 6 11 10
20 22 24 22 18 17 15 12 10 9 7 4 5 9 1 4 4 3 6 2 2 1 2 1 1 1 2 3 3 3 6 8 7 3 4 6 6 7 15 2 7 9 13 9 12
20 22 24 22 20 17 15 13 10 8 8 4 2 1 2 14 0 4 4 2 3 2 1 1 2 2 1 3 3 4 8 8 6 4 5 7 7 8 14 5 8 10 9 9 10
21 17 24 23 19 18 16 14 11 9 7 4 0 1 8 6 3 8 3 4 4 4 2 3 2 1 2 3 6 3 1 4 4 3 3 6 8 11 5 3 9 9 8 9 10
22 24 23 23 21 18 15 14 12 9 4 4 2 3 9 4 4 8 8 5 4 3 3 1 2 3 1 3 4 2 4 6 9 7 6 4 7 6 4 4 9 9 9 8 9
23 19 19 25 22 19 16 14 11 7 2 2 3 2 6 6 4 4 6 9 3 5 2 3 4 3 1 4 9 7 5 5 5 3 3 3 11 11 9 6 11 9 9 9 10
23 20 19 25 24 22 19 11 8 4 6 10 9 7 2 4 3 3 5 7 5 4 7 3 4 11 22 13 4 0 4 5 5 5 4 8 7 14 10 7 11 10 9 10 10
26 22 19 26 27 27 17 11 14 7 5 19 10 13 9 3 2 3 8 7 6 7 7 2 14 15 2 9 9 10 11 12 12 11 5 13 11 10 8 11 10 10 9 10 5
30 22 15 27 28 21 19 18 12 4 2 5 16 11 7 6 6 6 9 6 5 10 14 11 6 16 14 7 7 12 13 10 11 8 6 7 13 12 10 6 8 9 7 7 9
24 20 21 27 23 18 17 14 7 5 3 6 9 10 10 6 9 11 9 6 5 14 7 11 7 4 9 7 11 13 13 15 7 1 5 2 8 5 8 11 6 12 7 7 6
27 25 26 30 14 22 17 12 5 5 4 10 11 8 13 19 9 13 12 8 8 9 8 10 7 11 13 12 14 7 6 10 10 8 1 2 5 6 6 6 11 7 7 7 4
24 27 24 23 11 25 22 9 4 7 13 7 9 11 13 16 4 4 15 4 6 3 6 6 2 7 9 9 15 3 3 2 3 2 9 8 8 10 8 6 5 1 5 6 6
25 22 20 16 15 25 21 9 8 11 5 9 9 13 13 12 16 8 18 21 16 10 21 7 16 3 4 3 4 6 7 2 3 2 9 13 11 16 8 14 9 7 9 7 6
25 26 22 20 18 28 15 12 10 18 10 5 11 17 14 12 14 8 17 17 24 6 3 14 10 21 11 17 7 10 9 9 8 6 5 5 9 8 8 9 6 7 9 8 7
13 15 13 19 25 22 21 21 15 14 24 8 14 11 9 9 10 12 16 20 19 24 14 9 10 4 8 25 17 6 11 7 4 3 2 6 7 7 2 3 6 11 8 9 8
2 6 18 16 27 21 25 20 24 8 17 14 10 9 12 17 10 17 16 18 12 28 6 4 4 5 7 4 13 16 9 3 3 5 11 5 6 10 3 6 6 9 11 8 6
6 5 10 17 18 20 23 31 23 4 7 28 11 8 8 12 10 17 16 9 25 18 23 4 3 3 6 9 13 6 13 6 5 7 6 4 11 8 14 10 13 9 7 8 9
3 6 11 20 14 19 24 38 8 7 3 4 4 4 10 12 12 13 15 11 12 15 22 20 1 11 13 5 1 10 12 19 9 6 8 2 18 2 7 8 8 8 8 7 6
4 4 2 20 6 18 25 25 10 13 6 6 4 2 2 7 7 11 10 2 8 19 17 12 6 7 5 3 6 14 8 16 19 3 19 9 9 4 8 8 3 10 7 6 7
4 4 2 8 5 19 22 27 27 6 2 5 5 5 4 5 4 9 8 4 3 3 6 16 6 12 17 7 3 7 19 16 18 10 10 19 4 4 5 8 6 6 7 8 9
4 3 4 11 11 13 18 18 23 18 12 9 5 9 6 4 3 7 5 4 3 2 2 4 14 16 18 6 5 5 8 20 21 28 17 10 16 15 8 7 6 7 8 9 9
2 2 1 10 16 18 17 17 29 19 17 22 17 15 12 11 7 5 6 4 5 5 5 1 4 11 21 14 9 9 6 11 23 21 5 9 10 2 5 6 7 6 8 8 7
1 2 2 11 11 16 12 15 24 17 5 20 21 12 17 27 13 3 4 3 6 9 5 4 4 5 16 10 6 9 23 13 5 4 9 11 4 10 5 7 7 9 8 8 6
Wind_Direction
221 230 228 219 221 223 231 229 247 255 277 304 319 324 323 329 316 317 255 225 157 348 214 296 156 51 74 344 187 128 64 188 252 175 247 332 8 283 287 340 327 52 144 285 113
226 222 231 218 214 220 223 230 236 256 270 295 315 322 320 333 312 271 256 203 264 311 35 24 352 11 47 210 325 110 117 212 224 241 272 318 331 323 350 346 318 5 50 82 124
284 221 224 217 206 212 217 224 229 242 268 294 313 318 318 326 324 255 171 216 275 331 271 253 352 151 280 90 206 156 191 216 255 236 291 296 303 255 289 257 234 262 202 175 157
290 223 216 222 205 204 207 214 224 234 246 285 313 318 315 312 256 317 178 226 292 322 318 65 30 98 128 237 284 282 233 221 266 125 299 232 295 298 228 238 234 254 138 193 195
293 221 217 213 211 197 198 206 215 226 239 271 315 324 337 7 252 302 94 335 318 302 308 51 64 143 193 219 311 204 266 288 258 277 246 286 240 241 269 262 276 280 256 201 221
266 295 210 210 206 191 190 198 207 210 220 249 318 321 245 236 254 2 50 354 295 11 3 87 120 225 269 238 191 283 249 270 270 229 241 207 254 158 268 124 279 260 277 265 204
262 299 206 203 195 191 186 186 193 200 204 219 317 359 274 231 40 335 349 273 318 338 88 86 107 96 335 292 319 284 309 323 244 229 224 190 297 222 259 332 294 308 306 307 277
244 274 207 199 189 185 181 174 178 189 200 187 319 98 243 250 304 286 125 299 243 238 232 190 45 95 169 298 348 319 16 319 279 102 243 140 263 274 332 331 307 313 331 330 315
237 243 240 190 180 175 174 163 163 173 157 180 160 186 261 302 220 243 170 188 176 182 254 172 100 193 328 111 357 317 244 238 311 216 200 187 250 268 347 357 290 298 308 297 284
228 237 259 183 173 165 155 137 144 124 172 186 263 355 253 220 211 206 175 157 143 112 91 141 60 142 329 132 227 201 222 246 246 292 110 286 261 272 276 283 264 276 282 283 277
221 226 240 185 165 152 139 128 137 196 218 192 186 217 334 244 296 193 148 110 109 115 176 201 141 206 217 205 241 74 236 251 242 249 334 255 261 262 256 267 271 267 261 263 270
218 215 216 194 161 155 166 186 182 168 192 239 238 249 295 14 344 212 131 130 152 174 139 112 228 230 95 184 218 243 261 258 283 267 185 280 256 271 236 241 233 254 266 262 266
216 203 208 190 156 158 186 185 184 146 135 201 217 212 229 158 228 228 162 144 159 178 191 202 205 217 202 210 201 234 234 253 253 328 264 269 280 262 257 259 270 271 241 260 237
224 194 206 177 157 173 192 175 158 179 295 247 199 233 185 146 263 199 192 151 196 193 173 227 232 157 188 222 193 240 211 233 257 226 246 135 286 203 227 248 274 270 250 222 178
207 197 189 191 162 179 164 160 146 72 222 197 182 170 167 177 130 209 182 211 190 187 163 220 187 204 215 207 192 231 170 194 222 233 109 290 301 239 168 246 264 293 233 201 163
210 193 183 206 182 165 161 146 77 103 233 205 138 167 146 199 207 90 176 175 174 224 264 207 221 172 205 219 203 128 225 276 74 106 250 197 206 250 219 219 255 203 188 181 181
207 195 179 221 177 157 158 143 153 187 173 190 169 169 172 170 200 155 181 189 187 180 228 210 238 259 177 160 144 155 131 257 307 196 244 198 222 251 287 279 236 184 182 173 180
208 194 195 214 176 151 158 175 182 207 195 150 150 153 182 148 203 170 166 195 213 211 128 195 245 198 181 212 178 199 170 166 200 209 266 201 237 244 225 283 230 153 144 160 182
223 180 195 211 174 159 160 189 196 192 195 162 134 152 197 182 168 178 191 198 198 197 198 170 245 180 193 211 180 195 208 201 297 134 315 215 284 294 287 242 152 135 152 179 189
167 235 200 205 176 160 171 185 210 178 176 193 162 173 173 177 158 187 170 198 211 205 191 210 289 218 185 124 226 215 149 96 209 214 239 240 249 234 225 205 176 156 177 177 190
189 235 194 185 175 166 183 200 199 180 146 188 194 154 175 169 174 192 192 202 194 187 200 166 143 224 130 196 163 173 227 216 181 177 184 259 255 205 200 199 180 177 164 169 189
222 205 164 165 183 172 182 196 149 166 93 133 95 126 162 171 175 190 205 202 179 164 194 205 132 258 235 236 164 218 208 202 197 217 238 210 253 324 214 163 155 160 165 156 114
249 205 345 181 166 170 197 205 196 186 166 139 135 139 117 160 166 192 192 195 175 177 168 162 212 254 280 269 269 231 212 214 221 104 221 186 260 5 114 110 126 138 115 97 70
174 187 313 191 102 178 173 194 214 222 305 115 150 94 118 179 220 186 191 161 155 157 169 167 162 201 228 199 207 212 223 215 211 224 218 223 163 237 129 132 110 84 89 82 70
174 211 252 163 194 175 187 179 194 208 213 175 217 202 147 180 174 182 168 111 71 141 116 175 223 224 247 220 196 235 231 216 214 224 201 193 191 186 178 172 149 117 101 91 85
187 176 238 163 161 168 182 183 194 189 174 217 220 218 211 226 199 220 182 168 178 152 186 359 262 225 247 236 209 241 245 235 221 226 206 156 198 157 122 121 135 127 119 108 105
183 268 359 163 155 179 191 177 197 176 235 216 206 179 207 226 217 79 338 188 165 160 140 147 132 177 245 225 189 263 217 197 183 161 179 203 207 157 152 157 149 148 137 136 137